Regional Weather Roundup
Issued by NWS Charleston, SC

Current Version | Previous Version | Graphics & Text | Print | Product List | Glossary On
Versions: 1 2 3 4 5 6 7 8 9 10 11 12 13 14 15 16 17 18 19 20 21 22 23 24 25 26 27 28 29 30 31 32 33 34 35 36 37 38 39 40 41 42 43 44 45 46 47 48 49 50
000
ASUS42 KCHS 211327
RWRCHS

REGIONAL WEATHER ROUNDUP
NATIONAL WEATHER SERVICE CHARLESTON SC
800 AM EST TUE NOV 21 2017

NOTE: "FAIR" INDICATES FEW OR NO CLOUDS BELOW 12,000 FEET WITH NO
SIGNIFICANT WEATHER AND/OR OBSTRUCTIONS TO VISIBILITY.

NOT ALL STATIONS ARE QUALITY CONTROLLED. USE DATA WITH CAUTION...
ESPECIALLY DEWPOINT OBSERVATIONS.

SCZ027-030-031-034>040-042>050-211400-
...SOUTHEAST SOUTH CAROLINA...

CITY           SKY/WX    TMP DP  RH WIND       PRES   REMARKS
N CHARLESTON   CLOUDY    51  47  86 NE5       30.18S
WATERFRONT PRK NOT AVBL
JOHNS ISLAND   CLOUDY    55  52  88 CALM      30.18S
PINOPOLIS        N/A     50  46  87 E7        30.12R
MONCKS CORNER  FAIR      46  43  87 NE6       30.19F
SUMMERVILLE    CLOUDY    46  45  93 CALM      30.19F
BEAUFORT MCAS  CLOUDY    53  50  89 NE5       30.16R
BEAUFORT ARPT  PTSUNNY   54  50  87 NE6       30.15S
HILTON HEAD IS MOSUNNY   55  52  88 NE6       30.16S
WALTERBORO     PTSUNNY   50  45  81 E7        30.18R
ALLENDALE      CLOUDY    52  46  82 VRB5      30.16S

...SOUTHERN MIDLANDS AND PEE DEE...

CITY           SKY/WX    TMP DP  RH WIND       PRES   REMARKS
GEORGETOWN     CLOUDY    48  48 100 NE6       30.21S
KINGSTREE      FAIR      43  37  81 CALM      30.20F
ORANGEBURG     CLOUDY    48  40  73 E7        30.18S
BARNWELL         N/A     54  46  76 E6        30.17S
AIKEN          CLOUDY    45  39  81 CALM      30.21R
MANNING        FAIR      45  43  93 MISG      30.20S
COLUMBIA       CLOUDY    41  38  89 CALM      30.19S
SUMTER         PTSUNNY   45  39  81 NE5       30.18S
FLORENCE       MOSUNNY   40  35  83 E5        30.22R WCI  37
MYRTLE BEACH   MOSUNNY   47  43  86 N6        30.22S
N MYRTLE BEACH CLOUDY    45  42  89 NE7       30.22S

$$

GAZ063-065-086>088-099>101-113>116-118-119-134>141-150-211400-
...SOUTHEAST GEORGIA...

CITY           SKY/WX    TMP DP  RH WIND       PRES   REMARKS
SAVANNAH ARPT  PTSUNNY   54  50  86 E6        30.15R
HUNTER AAF     CLOUDY    55  51  87 E6        30.11F
FORT STEWART   CLOUDY    55  50  84 CALM      30.11S
STATESBORO     CLOUDY    53  45  74 CALM      30.15R
SYLVANIA       CLOUDY    52  48  84 E5        30.16S
CLAXTON        FAIR      53  50  89 CALM      30.14R

...CSRA...CENTRAL AND FAR SOUTHEAST GEORGIA...

CITY           SKY/WX    TMP DP  RH WIND       PRES   REMARKS
THOMSON        CLOUDY    46  39  76 SE3       30.22R
AUGUSTA-BUSH   CLOUDY    48  42  80 CALM      30.16S
AUGUSTA-DANIEL CLOUDY    52  43  71 E7        30.16S
SWAINSBORO     FAIR      52  46  82 E5        30.15S
VIDALIA        MOCLDY    54  50  87 E3        30.14R
EASTMAN        FAIR      48  41  78 CALM      30.16R
HAZLEHURST     FAIR      54  46  76 CALM      30.12R
ALMA           MOCLDY    55  52  89 E3        30.11R
WAYCROSS       CLOUDY    55  52  90 CALM      30.12R
JESUP          PTSUNNY   57  52  82 CALM      30.13R
BAXLEY         FAIR      52  52 100 NE3       30.12R
BRUNSWICK      CLOUDY    59  55  88 CALM      30.11S
SAINT SIMONS   CLOUDY    68  61  78 E8        30.09F

$$

SCZ027-028-034-036>038-045-046-048>050-GAZ119-141-211400-
...LAKE AND SUPPLEMENTAL COASTAL OBSERVATIONS...

STATION/POSITION TIME  TEMP    WIND        PRES    WAVE   SWELL
                       AIR SEA DIR/SP/G            HT/PER HT/PER/DIR
                 (UTC) (F)     (DEG/KT/KT) (MB)    (FT/S) (FT/S/D)
WINYAH BAY       1245   50      20/  4     1023.0S
LAKE MURRAY      1220   46      CALM  /  1 1021.7
ACE BASIN NERRS  1245   51      10/  2     1021.0S
FORT PULASKI     1300   59 61   50/  5/  8 1020.8
SAPELO ISLAND    1300   59      20/  5     1019.0

$$

ANZ835-935-AMZ111-154-330-350-352-354-370-450-454-472-211400-
...C-MAN AND BUOY OBSERVATIONS...

STATION/POSITION TIME  TEMP    WIND        PRES    WAVE   SWELL
                       AIR SEA DIR/SP/G            HT/PER HT/PER/DIR
                 (UTC) (F)     (DEG/KT/KT) (MB)    (FT/S) (FT/S/D)
BUOY 41004       1310   72     140/ 12/ 16 1021.2
BUOY 41008       1250   70 68  110/ 10/ 12 1019.4S   4/ 5   3/120/ 5
FOLLY BEACH CMAN 1300   57      30/ 11/ 14 1022.2S
CAPERS NEARSHORE 1308   56 62   40/ 14/ 19 1021.6R
FRIPP NEARSHORE  1308   58 62   60/ 12/ 19 1020.6R


STATION/POSITION TIME  TEMP    WIND        PRES    WAVE   SWELL
                       AIR SEA DIR/SP/G            HT/PER HT/PER/DIR
                 (UTC) (F)     (DEG/KT/KT) (MB)    (FT/S) (FT/S/D)
5E ST. MARYS GA  1300      67                N/A     4/ 6
FRYING PAN BUOY  1310   69 71  110/  6/  8 1022.6
BUOY 41025       1310   65 76  320/  8/ 12 1024.6
CAPE LOOKOUT NC  1300           30/  7/  8 1024.6R
BUOY 41002       1250   70 76  100/ 16/ 19 1022.9R   5/ 8   2/ 20/ 8
BUOY 41010       NOT AVBL
ST AUGUSTINE FL  1300   71 67  120/ 11/ 12 1018.5R


$$




USA.gov is the U.S. government's official web portal to all federal, state and local government web resources and services.